This demonstration page uses our WeatherBlox Daily Observations layout. Learn more.

41.55636, -103.73856

Hourly Observations for March 18, 2019

Temp ( °F °C ) Dew Point ( °F °C ) Humidity (%) Winds ( mph kmh ) Pressure ( in mb ) Visibility ( mi km ) Precip ( " mm )
12:58 am 00:58 Clear 38 3.2 25 -3.7 61 61 Calm 30.41 1030 10 16.0934 0 0
1:58 am 01:58 Mostly Clear 34 1.3 25 -3.7 70 70 Calm 30.43 1031 10 16.0934 0 0
2:58 am 02:58 Mostly Clear 32 0.1 26 -3.6 76 76 ESE 7 11 30.44 1031 10 16.0934 0 0
3:58 am 03:58 Clear 31 -0.7 24 -4.4 76 76 SE 9 15 30.44 1031 10 16.0934 0 0
4:58 am 04:58 Clear 30 -1.3 25 -4.1 81 81 SSE 7 11 30.45 1031 10 16.0934 0 0
5:58 am 05:58 Clear 28 -2 24 -4.7 82 82 S 7 11 30.46 1032 10 16.0934 0 0
6:58 am 06:58 Mostly Clear 27 -2.6 24 -4.7 86 86 S 8 13 30.44 1031 10 16.0934 0 0
7:58 am 07:58 Clear 26 -3.3 22 -5.4 86 86 S 8 13 30.43 1031 10 16.0934 0 0
8:58 am 08:58 Clear 25 -4 21 -5.9 87 87 S 8 13 30.42 1030 10 16.0934 0 0
9:58 am 09:58 Mostly Cloudy 24 -4.5 21 -6.3 87 87 S 10 17 30.4 1029 10 16.0934 0 0
10:58 am 10:58 Mostly Cloudy 24 -4.3 20 -6.4 85 85 S 14 22 30.39 1029 10 16.0934 0 0
11:58 am 11:58 Clear 24 -4.6 20 -6.6 86 86 SSW 15 24 30.38 1029 10 16.0934 0 0
12:58 pm 12:58 Mostly Clear 24 -4.6 20 -6.6 86 86 SSW 10 17 30.4 1029 10 16.0934 0 0
1:58 pm 13:58 Sunny 24 -4.3 21 -6.1 87 87 SSW 12 19 30.37 1029 10 16.0934 0 0
2:58 pm 14:58 Sunny 27 -3 23 -4.9 87 87 SSW 15 24 30.36 1028 10 16.0934 0 0
3:58 pm 15:58 Sunny 29 -1.6 24 -4.2 83 83 S 15 24 30.35 1028 10 16.0934 0 0
4:58 pm 16:58 Sunny 32 0 24 -4.2 74 74 S 17 28 30.35 1028 10 16.0934 0 0
5:58 pm 17:58 Sunny 34 1.2 26 -3.4 72 72 S 16 26 30.31 1026 10 16.0934 0 0
6:58 pm 18:58 Sunny 36 2.2 28 -2.4 72 72 S 15 24 30.29 1026 10 16.0934 0 0
7:58 pm 19:58 Sunny 38 3.5 29 -1.8 69 69 SSW 9 15 30.27 1025 10 16.0934 0 0
8:58 pm 20:58 Sunny 41 4.8 30 -1.2 65 65 SW 9 15 30.23 1024 10 16.0934 0 0
9:58 pm 21:58 Partly Cloudy 42 5.6 29 -1.7 60 60 WSW 5 7 30.23 1024 10 16.0934 0 0
10:58 pm 22:58 Mostly Cloudy 39 3.9 31 -0.6 73 73 NW 13 20 30.24 1024 10 16.0934 0 0
11:58 pm 23:58 Mostly Sunny 38 3.2 29 -1.5 72 72 NNW 12 19 30.27 1025 10 16.0934 0 0

Powered by AerisWeather